TimeCDT,TemperatureF,Dew PointF,Humidity,Sea Level PressureIn,VisibilityMPH,Wind Direction,Wind SpeedMPH,Gust SpeedMPH,PrecipitationIn,Events,Conditions,WindDirDegrees,DateUTC
12:53 AM,75.0,57.0,53,29.70,10.0,South,13.8,-,N/A,,Clear,170,2013-09-26 05:53:00
1:53 AM,75.9,57.0,52,29.69,10.0,South,20.7,-,N/A,,Clear,180,2013-09-26 06:53:00
2:53 AM,73.0,57.0,57,29.70,10.0,South,16.1,-,N/A,,Clear,190,2013-09-26 07:53:00
3:53 AM,70.0,57.9,65,29.71,10.0,South,11.5,-,N/A,,Clear,180,2013-09-26 08:53:00
4:53 AM,68.0,57.9,70,29.72,10.0,South,5.8,-,N/A,,Clear,170,2013-09-26 09:53:00
5:53 AM,68.0,57.9,70,29.72,10.0,South,13.8,-,N/A,,Clear,190,2013-09-26 10:53:00
6:53 AM,66.9,57.9,73,29.73,10.0,South,13.8,-,N/A,,Clear,190,2013-09-26 11:53:00
7:53 AM,66.9,57.0,70,29.76,10.0,South,11.5,-,N/A,,Clear,180,2013-09-26 12:53:00
8:53 AM,73.9,59.0,59,29.78,10.0,South,18.4,-,N/A,,Clear,190,2013-09-26 13:53:00
9:53 AM,78.1,59.0,52,29.79,10.0,South,21.9,-,N/A,,Clear,190,2013-09-26 14:53:00
10:53 AM,82.9,57.9,42,29.78,10.0,South,21.9,29.9,N/A,,Clear,180,2013-09-26 15:53:00
11:53 AM,86.0,57.9,38,29.77,10.0,SSW,21.9,31.1,N/A,,Clear,200,2013-09-26 16:53:00
12:53 PM,90.0,57.0,33,29.76,10.0,SSW,18.4,27.6,N/A,,Clear,200,2013-09-26 17:53:00
1:53 PM,93.0,55.9,29,29.74,10.0,South,24.2,28.8,N/A,,Clear,190,2013-09-26 18:53:00
2:53 PM,93.9,55.0,27,29.72,10.0,South,29.9,35.7,N/A,,Clear,180,2013-09-26 19:53:00
3:53 PM,93.9,52.0,24,29.71,10.0,South,29.9,36.8,N/A,,Clear,180,2013-09-26 20:53:00
4:53 PM,93.9,50.0,22,29.71,10.0,South,27.6,34.5,N/A,,Clear,180,2013-09-26 21:53:00
5:53 PM,91.9,52.0,26,29.72,10.0,South,27.6,34.5,N/A,,Clear,180,2013-09-26 22:53:00
6:53 PM,89.1,54.0,30,29.73,10.0,South,19.6,31.1,N/A,,Clear,180,2013-09-26 23:53:00
7:53 PM,84.0,55.0,37,29.75,10.0,South,12.7,-,N/A,,Clear,170,2013-09-27 00:53:00
8:53 PM,82.0,54.0,38,29.76,10.0,South,19.6,-,N/A,,Clear,170,2013-09-27 01:53:00
9:53 PM,80.1,55.0,42,29.77,10.0,South,19.6,-,N/A,,Clear,170,2013-09-27 02:53:00
10:53 PM,79.0,53.1,40,29.78,10.0,South,19.6,-,N/A,,Clear,170,2013-09-27 03:53:00
11:53 PM,77.0,53.1,43,29.80,10.0,South,21.9,-,N/A,,Clear,180,2013-09-27 04:53:00